Вернуться в каталог

STARLINK-37893

АктивенСвязьSSO
NORAD 69486·PAYLOAD·🇺🇸 United States

Запущен Jun 11, 2026 с Vandenberg Space Force Base

Loading…

Ближайшие Пролёты (ближайшие 24 часа)

TLE

СвежийSource: CelesTrak SupGP

Эпоха: Sep 14, 2026, 23:05 UTC

1 69486C 26131J   26257.96229167  .00043580  00000+0  13529-2 0  2578
2 69486  97.2841 278.8940 0001555  89.4565  67.5824 15.33415733    15

Отслеживайте STARLINK-37893 в реальном времени с AllMySat

Download on the App Store